SCOUT A DEB, 2777

Orbit data source: Space-Track

SCOUT A DEB, 2777 is space debris in LEO originally from a launch on Fri, 14 Apr 1967 UTC launched from the Air Force Western Test Range (AFWTR). Debris objects in space refer to the collection of defunct objects orbiting the Earth. Examples of debris include non-operational satellites, rocket bodies, and fragments generated from explosions, collisions, or faulty payload assembly.

Loading next visibility...
Identifier
2777, 1967-034C
Orbit
LEO
Country
Flag of USUS
Related business
Manufacturer
Unknown
Mission
Spacecraft
Bus & Motor
Unknown
Mass
Unknown
Launch date (UTC)
1967-04-14 (59 years ago)
Launch vehicle
Unknown
Launch site
Air Force Western Test Range (AFWTR)
Object type
Payload
Rocket body
Debris
Shape & HBR
Unknown shape, 0.1 m
Radar Cross Section
Small (<0.1 m²)

Expand to show TLE details & history
Last TLE update: 13 hours ago

TLE from 13 hours ago
0 SCOUT A DEB
1 02777U 67034C   26130.29650419  .00000608  00000-0  34056-3 0  9996
2 02777  90.2944 244.1658 0129800 226.3961 132.6394 14.05727419  3788
Epoch: 2026-05-10T07:06Z
TLE epoch observation values (Epoch: 2026-05-10T07:06:57.962Z)
Latitude
-0°
Longitude
-90.67733°
Altitude
941.494 km
Speed
7.348 km/s
True Right ascension
16h 16m 39s
True Declination
0° 00' 00"
Sunlit
Object was in full shadow at epoch
Visualization orbit readout
Latitude
Unknown
Longitude
Unknown
Altitude
Unknown
Speed
Unknown
Apparent Right ascension
Unknown
Apparent Declination
Unknown
Sunlit
N/A
Visualization observer readout
Local Sidereal Time
04:11:01
Azimuth
Unknown
Elevation
Unknown
Doppler factor
Unknown
Orbital elements
Apogee altitude
965.092 km
Perigee altitude
776.904 km
Semi-major axis
7,249.135 km
Eccentricity
0.01298
Inclination
90.2944°
RAAN
244.1658°
Arg. of periapsis
226.3961°
True anomaly
133.72161°
Mean anomaly
132.6394°
Eccentric anomaly
133.1817°
Mean motion
3.51653 °/min
Orbital period
102.37 mins
BSTAR
0.00034056
Loading maneuver chart data...
Computing Atmospheric mass density...
Loading historical data...
Loading historical data...
Loading historical data...
Loading historical data...
Loading historical data...
Loading historical data...
Loading historical data...

Documentation

Showing up to 5 results
|